When you browse on this site, cookies collect data to enhance your experience and personalize the content and advertising you see.
Visit our Privacy Policy to learn more. By continuing to use the site, you agree to this use of cookies and data.
  • In United Kingdom
  • List of Countries
  • For 7 days
  • Water Temperature
  • Satellite Maps
  • Weather Map
  • Weather Widgets
  • user-avatar
    Login

    Hourly Weather Porto Velho

    Today, 24 January, Thursday

    Time Temperature Precipitation Wind Pressure Humidity
    00:00 +23°C° 0 mm 0 mps 751 mmHg 97%
    01:00 +23°C° 0 mm 0 mps 751 mmHg 97%
    02:00 +23°C° 0 mm 0 mps 751 mmHg 97%
    03:00 +23°C° 0 mm 0 mps 751 mmHg 97%
    04:00 +23°C° 0 mm 0 mps 751 mmHg 98%
    05:00 +23°C° 0 mm 0 mps 751 mmHg 98%
    06:00 +23°C° 0 mm 0 mps 752 mmHg 95%
    07:00 +24°C° 0 mm 0 mps 752 mmHg 93%
    08:00 +25°C° 0 mm 0 mps 753 mmHg 90%
    09:00 +27°C° 0.3 mm 0 mps 753 mmHg 83%
    10:00 +30°C° 0.3 mm 1 mps 753 mmHg 76%
    11:00 +32°C° 0.3 mm 1 mps 752 mmHg 70%
    12:00 +32°C° 0.8 mm 1 mps 752 mmHg 72%
    13:00 +32°C° 0.8 mm 2 mps 751 mmHg 74%
    14:00 +32°C° 0.8 mm 2 mps 751 mmHg 77%
    15:00 +31°C° 1.1 mm 1 mps 750 mmHg 81%
    16:00 +30°C° 1.1 mm 1 mps 750 mmHg 86%
    17:00 +29°C° 1.1 mm 1 mps 749 mmHg 90%
    18:00 +28°C° 0 mm 1 mps 750 mmHg 92%
    19:00 +27°C° 0 mm 1 mps 750 mmHg 95%
    20:00 +26°C° 0 mm 1 mps 750 mmHg 97%
    21:00 +26°C° 0 mm 1 mps 751 mmHg 97%
    22:00 +26°C° 0 mm 1 mps 751 mmHg 98%
    23:00 +25°C° 0 mm 1 mps 752 mmHg 98%

    Tomorrow, 25 January, Friday

    Time Temperature Precipitation Wind Pressure Humidity
    00:00 +25°C° 0 mm 1 mps 752 mmHg 98%
    01:00 +25°C° 0 mm 1 mps 751 mmHg 98%
    02:00 +25°C° 0 mm 1 mps 751 mmHg 98%
    03:00 +25°C° 0 mm 1 mps 751 mmHg 98%
    04:00 +22°C° 0 mm 0 mps 751 mmHg 98%
    05:00 +22°C° 0 mm 0 mps 751 mmHg 98%
    06:00 +23°C° 0 mm 0 mps 751 mmHg 95%
    07:00 +24°C° 0 mm 0 mps 752 mmHg 91%
    08:00 +25°C° 0 mm 0 mps 752 mmHg 88%
    09:00 +29°C° 0 mm 1 mps 752 mmHg 76%
    10:00 +32°C° 0 mm 1 mps 752 mmHg 64%
    11:00 +34°C° 0 mm 1 mps 752 mmHg 52%
    12:00 +36°C° 0 mm 1 mps 751 mmHg 48%
    13:00 +37°C° 0 mm 1 mps 750 mmHg 44%
    14:00 +36°C° 0 mm 0 mps 749 mmHg 41%
    15:00 +35°C° 0 mm 0 mps 748 mmHg 45%
    16:00 +34°C° 0 mm 0 mps 748 mmHg 49%
    17:00 +33°C° 0 mm 0 mps 747 mmHg 53%
    18:00 +31°C° 0 mm 0 mps 748 mmHg 60%
    19:00 +29°C° 0 mm 0 mps 748 mmHg 66%
    20:00 +27°C° 0 mm 0 mps 749 mmHg 72%
    21:00 +27°C° 0 mm 0 mps 749 mmHg 75%
    22:00 +28°C° 0 mm 1 mps 750 mmHg 77%
    23:00 +28°C° 0 mm 1 mps 751 mmHg 79%

    Day after tomorrow, 26 January, Saturday

    Time Temperature Precipitation Wind Pressure Humidity
    00:00 +27°C° 0 mm 1 mps 750 mmHg 83%
    01:00 +26°C° 0 mm 1 mps 750 mmHg 87%
    02:00 +26°C° 0 mm 1 mps 750 mmHg 92%
    03:00 +26°C° 0 mm 1 mps 750 mmHg 93%
    04:00 +25°C° 0 mm 1 mps 750 mmHg 95%
    05:00 +25°C° 0 mm 1 mps 750 mmHg 96%
    06:00 +24°C° 0.3 mm 0 mps 750 mmHg 95%
    07:00 +24°C° 0.3 mm 0 mps 751 mmHg 95%
    08:00 +25°C° 0.3 mm 0 mps 752 mmHg 94%
    09:00 +27°C° 0 mm 0 mps 752 mmHg 81%
    10:00 +32°C° 0 mm 1 mps 752 mmHg 69%
    11:00 +35°C° 0 mm 1 mps 752 mmHg 56%
    12:00 +34°C° 1.1 mm 1 mps 751 mmHg 64%
    13:00 +33°C° 1.1 mm 1 mps 750 mmHg 71%
    14:00 +32°C° 1.1 mm 1 mps 748 mmHg 79%
    15:00 +30°C° 1 mm 0 mps 748 mmHg 81%
    16:00 +29°C° 1 mm 0 mps 748 mmHg 83%
    17:00 +29°C° 1 mm 0 mps 747 mmHg 85%
    18:00 +27°C° 0.2 mm 0 mps 748 mmHg 88%
    19:00 +26°C° 0.2 mm 0 mps 748 mmHg 91%
    20:00 +25°C° 0.2 mm 0 mps 749 mmHg 93%
    21:00 +25°C° 0 mm 0 mps 749 mmHg 93%
    22:00 +25°C° 0 mm 0 mps 750 mmHg 93%
    23:00 +24°C° 0 mm 0 mps 750 mmHg 92%

    27 January, Sunday

    Time Temperature Precipitation Wind Pressure Humidity
    00:00 +24°C° 0.1 mm 0 mps 750 mmHg 93%
    01:00 +24°C° 0.1 mm 0 mps 749 mmHg 94%
    02:00 +26°C° 0.1 mm 1 mps 748 mmHg 95%
    03:00 +23°C° 0 mm 0 mps 749 mmHg 96%
    04:00 +23°C° 0 mm 0 mps 749 mmHg 97%
    05:00 +23°C° 0 mm 0 mps 749 mmHg 97%
    06:00 +24°C° 0.1 mm 0 mps 749 mmHg 95%
    07:00 +25°C° 0.1 mm 0 mps 750 mmHg 93%
    08:00 +28°C° 0.1 mm 1 mps 751 mmHg 91%
    09:00 +29°C° 2 mm 1 mps 751 mmHg 89%
    10:00 +30°C° 2 mm 1 mps 751 mmHg 86%
    11:00 +31°C° 2 mm 1 mps 751 mmHg 83%
    12:00 +32°C° 0.8 mm 1 mps 750 mmHg 75%
    13:00 +33°C° 0.8 mm 1 mps 749 mmHg 67%
    14:00 +34°C° 0.8 mm 1 mps 747 mmHg 59%
    15:00 +34°C° 0 mm 1 mps 747 mmHg 60%
    16:00 +34°C° 0 mm 1 mps 747 mmHg 61%
    17:00 +34°C° 0 mm 1 mps 746 mmHg 61%
    18:00 +32°C° 0 mm 1 mps 747 mmHg 67%
    19:00 +30°C° 0 mm 1 mps 747 mmHg 73%
    20:00 +28°C° 0 mm 1 mps 748 mmHg 79%
    21:00 +28°C° 0 mm 1 mps 748 mmHg 81%
    22:00 +28°C° 0 mm 1 mps 749 mmHg 82%
    23:00 +27°C° 0 mm 1 mps 749 mmHg 84%

    28 January, Monday

    Time Temperature Precipitation Wind Pressure Humidity
    00:00 +27°C° 0.1 mm 1 mps 749 mmHg 87%
    01:00 +26°C° 0.1 mm 1 mps 749 mmHg 89%
    02:00 +26°C° 0.1 mm 1 mps 748 mmHg 92%
    03:00 +26°C° 1.6 mm 1 mps 748 mmHg 94%
    04:00 +26°C° 1.6 mm 1 mps 749 mmHg 96%
    05:00 +25°C° 1.6 mm 1 mps 749 mmHg 99%
    06:00 +26°C° 0.4 mm 1 mps 749 mmHg 98%
    07:00 +24°C° 0.4 mm 0 mps 750 mmHg 97%
    08:00 +25°C° 0.4 mm 0 mps 751 mmHg 96%
    09:00 +25°C° 0.5 mm 0 mps 751 mmHg 94%
    10:00 +28°C° 0.5 mm 1 mps 751 mmHg 93%
    11:00 +29°C° 0.5 mm 1 mps 751 mmHg 91%
    12:00 +31°C° 0.1 mm 1 mps 750 mmHg 79%
    13:00 +33°C° 0.1 mm 1 mps 749 mmHg 66%
    14:00 +35°C° 0.1 mm 1 mps 748 mmHg 54%
    15:00 +33°C° 1.6 mm 1 mps 748 mmHg 67%
    16:00 +31°C° 1.6 mm 1 mps 747 mmHg 79%
    17:00 +29°C° 1.6 mm 1 mps 747 mmHg 92%
    18:00 +28°C° 0.8 mm 1 mps 748 mmHg 93%
    19:00 +27°C° 0.8 mm 1 mps 748 mmHg 95%
    20:00 +26°C° 0.8 mm 1 mps 749 mmHg 96%
    21:00 +26°C° 0.5 mm 1 mps 750 mmHg 96%
    22:00 +26°C° 0.5 mm 1 mps 750 mmHg 96%
    23:00 +26°C° 0.5 mm 1 mps 751 mmHg 96%

    29 January, Tuesday

    Time Temperature Precipitation Wind Pressure Humidity
    00:00 +26°C° 1 mm 1 mps 751 mmHg 97%
    01:00 +26°C° 1 mm 1 mps 750 mmHg 97%
    02:00 +25°C° 1 mm 1 mps 750 mmHg 98%
    03:00 +23°C° 0.2 mm 0 mps 749 mmHg 98%
    04:00 +23°C° 0.2 mm 0 mps 749 mmHg 98%
    05:00 +23°C° 0.2 mm 0 mps 749 mmHg 99%
    06:00 +25°C° 0 mm 1 mps 750 mmHg 98%
    07:00 +26°C° 0 mm 1 mps 750 mmHg 97%
    08:00 +26°C° 0 mm 1 mps 751 mmHg 96%
    09:00 +27°C° 0.6 mm 1 mps 751 mmHg 95%
    10:00 +28°C° 0.6 mm 1 mps 751 mmHg 94%
    11:00 +28°C° 0.6 mm 1 mps 751 mmHg 92%
    12:00 +29°C° 0.9 mm 1 mps 751 mmHg 89%
    13:00 +30°C° 0.9 mm 1 mps 750 mmHg 85%
    14:00 +31°C° 0.9 mm 2 mps 749 mmHg 82%
    15:00 +30°C° 0.6 mm 1 mps 749 mmHg 82%
    16:00 +30°C° 0.6 mm 1 mps 748 mmHg 83%
    17:00 +30°C° 0.6 mm 1 mps 748 mmHg 83%
    18:00 +29°C° 0.5 mm 1 mps 748 mmHg 88%
    19:00 +27°C° 0.5 mm 1 mps 749 mmHg 93%
    20:00 +26°C° 0.5 mm 1 mps 749 mmHg 97%
    21:00 +26°C° 0 mm 1 mps 750 mmHg 98%
    22:00 +25°C° 0 mm 1 mps 750 mmHg 98%
    23:00 +25°C° 0 mm 1 mps 751 mmHg 98%
    Show more